Hill City, KS

10:51 AM CST on December 10, 2016 (GMT -0600)
Hill City Municipal

Weather History for KHLC - April, 2013

Change the Weather History Date:

Monday, April 8, 2013

  Actual Average Record
Temperature  
Mean Temperature 62 °F 49 °F  
Max Temperature 75 °F 63 °F 87 °F (1988)
Min Temperature 48 °F 35 °F 15 °F (1914)
Degree Days  
Heating Degree Days 6    
Growing Degree Days 10 (Base 50)    
Moisture  
Dew Point 52 °F    
Average Humidity 89    
Maximum Humidity 100    
Minimum Humidity 51    
Precipitation  
Precipitation 0.00 in 0.06 in 0.37 in (2002)
Month to date precipitation T 0.43  
Year to date precipitation 1.98 3.03  
Sea Level Pressure  
Sea Level Pressure 29.60 in    
Wind  
Wind Speed 5 mph (ESE)    
Max Wind Speed 24 mph    
Max Gust Speed 32 mph    
Visibility 5 miles    
Events Fog    
T = Trace of Precipitation, MM = Missing Value Source: NWS Daily Summary

Daily Weather History Graph

Daily Weather History Graph

Search for Another Location

Airport or City:

Trip Planner

Search our weather history database for the weather conditions in past years. The results will help you decide how hot, cold, wet, or windy it might be!

Date:

Astronomy

Apr. 08, 2013 Rise Set
Actual Time 7:12 AM CDT 8:10 PM CDT
Civil Twilight 6:44 AM CDT 8:37 PM CDT
Nautical Twilight 6:12 AM CDT 9:10 PM CDT
Astronomical Twilight 5:38 AM CDT 9:44 PM CDT
Moon 6:02 AM CDT (4/8) 6:46 PM CDT (4/8)
Length of Visible Light 13h 52m
Length of Day
12h 58m
Waning Crescent, 3% of the Moon is Illuminated
Apr 8
Waning Crescent
Apr 10
New
Apr 18
First Quarter
Apr 25
Full
May 2
Last Quarter

Hourly Weather History & Observations

Time (CDT) Temp. Dew Point Humidity Pressure Visibility Wind Dir Wind Speed Gust Speed Precip Events Conditions
12:00 AM 48.2 °F 44.6 °F 87% 29.66 in 10.0 mi ENE 3.5 mph - N/A   Scattered Clouds
12:08 AM 46.4 °F 44.6 °F 93% 29.66 in 10.0 mi Calm Calm - N/A   Mostly Cloudy
12:53 AM 48.9 °F 46.0 °F 90% 29.63 in 10.0 mi Calm Calm - N/A   Overcast
1:53 AM 48.9 °F 48.0 °F 97% 29.63 in 6.0 mi ESE 3.5 mph - N/A   Overcast
2:01 AM 48.2 °F 48.2 °F 100% 29.67 in 1.8 mi Calm Calm - N/A   Overcast
2:05 AM 48.2 °F 48.2 °F 100% 29.67 in 0.8 mi Calm Calm - N/A   Overcast
2:22 AM 48.2 °F 48.2 °F 100% 29.68 in 0.2 mi Calm Calm - N/A Fog Fog
2:53 AM 48.0 °F 48.0 °F 100% 29.63 in 0.2 mi NNW 4.6 mph - N/A Fog Fog
3:07 AM 48.2 °F 48.2 °F 100% 29.66 in 0.2 mi WNW 3.5 mph - N/A Fog Fog
3:53 AM 48.9 °F 48.9 °F 100% 29.61 in 0.2 mi West 4.6 mph - N/A Fog Fog
4:53 AM 48.0 °F 48.0 °F 100% 29.60 in 0.2 mi Calm Calm - N/A Fog Fog
5:06 AM 48.2 °F 48.2 °F 100% 29.63 in 0.5 mi SE 5.8 mph - N/A Fog Fog
5:18 AM 48.2 °F 48.2 °F 100% 29.62 in 0.2 mi East 3.5 mph - N/A Fog Fog
5:53 AM 48.0 °F 48.0 °F 100% 29.61 in 0.2 mi Calm Calm - N/A Fog Fog
6:53 AM 48.0 °F 48.0 °F 100% 29.61 in 0.2 mi NE 3.5 mph - N/A Fog Fog
7:15 AM 48.2 °F 48.2 °F 100% 29.65 in 0.2 mi Calm Calm - N/A Fog Fog
7:53 AM 48.0 °F 48.0 °F 100% 29.66 in 0.2 mi NNW 4.6 mph - N/A Fog Fog
8:53 AM 48.9 °F 48.9 °F 100% 29.65 in 0.2 mi Calm Calm - N/A Fog Fog
9:53 AM 51.1 °F 51.1 °F 100% 29.66 in 0.2 mi Calm Calm - 0.01 in Fog Fog
10:21 AM 51.8 °F 51.8 °F 100% 29.67 in 0.5 mi ESE 4.6 mph - N/A Fog Fog
10:53 AM 54.0 °F 54.0 °F 100% 29.66 in 1.2 mi SE 5.8 mph - N/A   Overcast
11:01 AM 53.6 °F 53.6 °F 100% 29.67 in 1.5 mi Calm Calm - N/A   Overcast
11:20 AM 55.4 °F 55.4 °F 100% 29.66 in 2.0 mi ESE 4.6 mph - N/A   Overcast
11:34 AM 55.4 °F 55.4 °F 100% 29.66 in 4.0 mi SE 5.8 mph - N/A   Overcast
11:53 AM 57.0 °F 55.9 °F 96% 29.65 in 4.0 mi ESE 5.8 mph - N/A   Overcast
12:53 PM 60.1 °F 57.9 °F 93% 29.63 in 7.0 mi SE 9.2 mph - N/A   Overcast
1:14 PM 60.8 °F 57.2 °F 88% 29.65 in 9.0 mi SE 6.9 mph - N/A   Overcast
1:53 PM 63.0 °F 59.0 °F 87% 29.61 in 8.0 mi SE 6.9 mph - N/A   Overcast
2:09 PM 64.4 °F 59.0 °F 83% 29.62 in 9.0 mi SE 6.9 mph - N/A   Overcast
2:20 PM 64.4 °F 57.2 °F 77% 29.62 in 10.0 mi SSE 6.9 mph - N/A   Overcast
2:53 PM 69.1 °F 57.9 °F 68% 29.57 in 10.0 mi SSE 11.5 mph - N/A   Overcast
3:53 PM 72.0 °F 55.9 °F 57% 29.54 in 10.0 mi ESE 17.3 mph 23.0 mph N/A   Mostly Cloudy
4:53 PM 73.0 °F 54.0 °F 51% 29.51 in 10.0 mi SE 16.1 mph 26.5 mph N/A   Partly Cloudy
5:53 PM 72.0 °F 54.0 °F 53% 29.50 in 10.0 mi ESE 18.4 mph 27.6 mph N/A   Mostly Cloudy
6:53 PM 71.1 °F 53.1 °F 53% 29.48 in 10.0 mi ESE 17.3 mph 25.3 mph N/A   Mostly Cloudy
7:53 PM 68.0 °F 55.9 °F 65% 29.49 in 10.0 mi ESE 15.0 mph - N/A   Mostly Cloudy
8:53 PM 66.0 °F 57.0 °F 73% 29.50 in 10.0 mi ESE 13.8 mph - N/A   Partly Cloudy
9:53 PM 64.9 °F 57.9 °F 78% 29.49 in 10.0 mi ESE 17.3 mph 26.5 mph N/A   Overcast
10:51 PM 64.4 °F 60.8 °F 88% 29.50 in 9.0 mi ESE 19.6 mph 29.9 mph N/A   Overcast
10:53 PM 64.0 °F 60.1 °F 87% 29.47 in 9.0 mi ESE 17.3 mph 29.9 mph N/A   Overcast
11:53 PM 64.0 °F 59.0 °F 84% 29.43 in 9.0 mi SE 24.2 mph 32.2 mph N/A   Overcast